[[{"header":{"parameterUnit":"m.s-1","parameterCategory":1,"la1":30.2991,"la2":30.254,"lo1":-89.0895,"lo2":-89.0444,"dy":0.0017,"dx":0.0017,"nx":28,"ny":28,"refTime":"2023-08-30T09:00:00:Z","depth":0,"parameterNumber":2,"parameterNumberName":"U-component_of_WINDS"},"data":[0,0,0,0,0,0,0,0,0,0,0,0,0,0,0,0,0,0,0,0,0,0,0,0,0,0,0,0,0,0,0,0,0,0,0,0,0,0,0,0,0,0,0,0,0,0,0,0,0,0,0,0,0,0,0,0,0,0,-0.4077,-0.4078,0,-0.4175,-0.4176,-0.4177,-0.4154,-0.4152,-0.415,-0.4148,-0.4252,-0.4256,-0.4261,0,0,0,0,0,0,0,0,0,0,0,0,0,-0.3871,-0.3875,-0.4077,-0.4078,-0.4079,-0.4175,-0.4176,-0.4177,-0.4154,-0.4152,-0.415,-0.4147,-0.425,-0.4256,-0.4261,0,0,0,0,0,0,0,0,0,0,0,0,0,-0.3964,-0.3876,-0.4076,-0.4079,-0.408,-0.4174,-0.4176,-0.4178,-0.4155,-0.4152,-0.4149,-0.4146,-0.4248,-0.4255,-0.4262,-0.4361,0,0,-0.4282,-0.4285,0,0,0,0,0,0,0,0,-0.3959,-0.3971,-0.4077,-0.4079,-0.408,-0.4149,-0.4141,-0.4239,-0.4155,-0.4126,-0.4148,-0.4145,-0.422,-0.4229,-0.4254,-0.4365,-0.437,-0.4283,-0.4287,-0.429,-0.4292,0,0,0,0,0,0,0,-0.3952,-0.3967,-0.4116,-0.4079,-0.4081,-0.4076,-0.4086,-0.416,-0.4188,-0.4129,-0.4127,-0.4139,-0.422,-0.4247,-0.4256,-0.4371,-0.4283,-0.4289,-0.4293,-0.4296,-0.457,-0.4573,0,0,0,0,0,0,-0.3944,-0.3962,-0.4112,-0.4118,-0.4011,-0.4082,-0.4093,-0.413,-0.4187,-0.4193,-0.4141,-0.4138,-0.4237,-0.4248,-0.426,-0.438,-0.429,-0.4296,-0.43,-0.4566,-0.457,-0.4574,0,0,0,0,0,0,-0.394,-0.3958,-0.4108,-0.404,-0.4059,-0.4088,-0.413,-0.4133,-0.416,-0.4197,-0.4202,-0.4164,-0.4235,-0.425,-0.4336,-0.4383,-0.4299,-0.4306,-0.4563,-0.4568,-0.4572,-0.4622,0,0,0,0,0,0,-0.3934,-0.3956,-0.3994,-0.4041,-0.4062,-0.4183,-0.4133,-0.4137,-0.4172,-0.4168,-0.4219,-0.4225,-0.4234,-0.4326,-0.4342,-0.4391,-0.4311,-0.4559,-0.4565,-0.4571,-0.4616,-0.4628,-0.4637,0,0,0,0,0,-0.3927,-0.4004,-0.3996,-0.4014,-0.411,-0.4185,-0.4198,-0.4206,-0.4176,-0.4214,-0.4237,-0.4223,-0.4375,-0.4335,-0.4353,-0.4405,-0.4556,-0.4563,-0.457,-0.4611,-0.4625,-0.4637,0,0,0,0,0,0,-0.3964,-0.4011,-0.4002,-0.4097,-0.4137,-0.4181,-0.423,-0.4221,-0.4272,-0.4266,-0.4275,-0.4286,-0.4374,-0.4398,-0.4352,-0.4504,-0.4461,-0.4472,-0.4486,-0.45,-0.451,-0.4504,-0.4317,0,0,0,0,0,-0.3982,-0.4039,-0.4077,-0.4157,-0.4178,-0.42,-0.4234,-0.4236,-0.4279,-0.4296,-0.4326,-0.4368,-0.4426,-0.4463,-0.4518,-0.4618,-0.463,-0.4663,-0.4673,-0.4682,-0.4693,-0.4748,-0.4764,-0.4598,-0.4597,-0.4597,0,0,-0.4023,-0.4055,-0.4091,-0.4166,-0.4197,-0.4257,-0.4215,-0.428,-0.4324,-0.4306,-0.4389,-0.4412,-0.446,-0.4554,-0.4596,-0.4576,-0.4741,-0.4691,-0.4698,-0.4704,-0.4757,-0.4773,-0.4787,-0.4602,-0.4602,-0.4601,0,0,-0.4127,-0.4156,-0.4227,-0.4259,-0.4307,-0.4321,-0.4338,-0.4383,-0.4398,-0.4481,-0.4469,-0.4522,-0.462,-0.4655,-0.4686,-0.4802,-0.4791,-0.4819,-0.4876,-0.4931,-0.4944,-0.4955,-0.4999,-0.5014,-0.4829,-0.4829,-0.4829,0,-0.4171,-0.426,-0.4264,-0.433,-0.4364,-0.4349,-0.4421,-0.4452,-0.4516,-0.454,-0.4516,-0.4639,-0.467,-0.4772,-0.48,-0.4825,-0.4845,-0.4815,-0.4941,-0.4953,-0.4964,-0.5005,-0.5021,-0.4832,-0.4832,-0.4831,-0.4831,0,-0.4313,-0.4374,-0.4425,-0.4486,-0.4525,-0.4594,-0.461,-0.4649,-0.4648,-0.4665,-0.475,-0.4786,-0.4849,-0.4872,-0.4872,-0.4975,-0.4961,-0.4939,-0.4896,-0.4983,-0.5022,-0.5038,-0.4837,-0.4836,-0.4835,-0.4834,0,0,-0.4445,-0.4507,-0.4526,-0.4554,-0.4605,-0.4653,-0.472,-0.478,-0.4814,-0.4858,-0.4916,-0.4999,-0.4979,-0.5014,-0.5017,-0.5064,-0.5156,-0.5037,-0.5038,-0.5059,-0.5272,-0.529,-0.5308,-0.5147,-0.515,-0.5153,-0.5269,0,-0.4556,-0.4675,-0.4681,-0.4789,-0.4847,-0.4832,-0.4892,-0.493,-0.4947,-0.4999,-0.5018,-0.5077,-0.5045,-0.5066,-0.5112,-0.5135,-0.5199,-0.5126,-0.5203,-0.5206,-0.5194,-0.5328,-0.5348,-0.5456,-0.5284,-0.5286,-0.5288,0,-0.4701,-0.4749,-0.4863,-0.4906,-0.493,-0.4983,-0.5039,-0.5087,-0.513,-0.514,-0.5178,-0.5174,-0.5244,-0.5197,-0.5295,-0.5245,-0.5277,-0.5293,-0.5297,-0.5307,-0.5254,-0.5344,-0.549,-0.5507,-0.5312,-0.531,-0.5308,0,-0.4789,-0.4881,-0.4962,-0.4985,-0.5037,-0.5075,-0.5098,-0.5138,-0.5174,-0.5222,-0.5245,-0.5301,-0.5332,-0.5376,-0.5388,-0.5352,-0.5486,-0.5439,-0.5497,-0.5497,-0.5528,-0.5526,-0.5684,-0.5544,-0.5544,-0.5544,-0.5543,0,-0.4913,-0.4984,-0.5002,-0.5052,-0.5131,-0.5137,-0.5215,-0.5236,-0.5271,-0.5326,-0.5316,-0.5367,-0.5378,-0.5432,-0.5441,-0.5522,-0.5535,-0.5546,-0.5548,-0.5548,-0.5547,-0.5571,-0.5565,-0.5548,-0.5547,-0.5546,-0.5545,0,-0.5026,-0.504,-0.5127,-0.5168,-0.518,-0.5237,-0.5273,-0.5321,-0.5336,-0.5405,-0.5421,-0.5445,-0.5508,-0.5523,-0.5598,-0.5604,-0.5699,-0.5693,-0.5685,-0.5686,-0.5743,-0.5738,-0.5923,-0.5948,-0.579,-0.5791,-0.5793,0,-0.5105,-0.5159,-0.5206,-0.5241,-0.5266,-0.5323,-0.5358,-0.5366,-0.5404,-0.5456,-0.5498,-0.5559,-0.5609,-0.571,-0.5735,-0.5792,-0.5788,-0.5849,-0.5797,-0.5795,-0.5792,-0.5789,-0.5795,-0.586,-0.5861,-0.5863,-0.5864,0,-0.5245,-0.525,-0.5301,-0.5356,-0.5399,-0.5442,-0.5483,-0.5513,-0.5526,-0.5569,-0.5632,-0.5671,-0.5746,-0.5808,-0.5865,-0.5889,-0.588,-0.5879,-0.5896,-0.5898,-0.5892,-0.5898,-0.5715,-0.5876,-0.5875,-0.5874,-0.5873,-0.5873,-0.5346,-0.5393,-0.5433,-0.5492,-0.5523,-0.5562,-0.5609,-0.563,-0.5682,-0.5744,-0.5745,-0.5814,-0.5856,-0.5931,-0.5959,-0.6014,-0.5995,-0.6019,-0.6026,-0.6032,-0.6038,-0.5881,-0.6024,-0.6024,-0.6023,-0.6023,-0.6023,0,-0.5487,-0.5512,-0.5565,-0.5623,-0.5669,-0.5653,-0.5698,-0.5737,-0.5798,-0.5837,-0.5886,-0.5959,-0.6018,-0.6046,-0.6105,-0.6144,-0.6141,-0.6159,-0.6158,-0.6164,-0.605,-0.6031,-0.616,-0.616,-0.616,-0.616,-0.616,-0.616,-0.5566,-0.5647,-0.5656,-0.5752,-0.5776,-0.5843,-0.587,-0.5906,-0.5937,-0.6019,-0.6068,-0.6085,-0.6121,-0.6181,-0.6235,-0.6242,-0.6265,-0.6286,-0.6291,-0.6185,-0.6172,-0.6158,-0.614,-0.6291,-0.6291,-0.64,-0.6401,-0.6402]},{"header":{"parameterUnit":"m.s-1","parameterCategory":1,"la1":30.2991,"la2":30.254,"lo1":-89.0895,"lo2":-89.0444,"dy":0.0017,"dx":0.0017,"nx":28,"ny":28,"refTime":"2023-08-30T09:00:00:Z","depth":0,"parameterNumber":3,"parameterNumberName":"V-component_of_WINDS"},"data":[0,0,0,0,0,0,0,0,0,0,0,0,0,0,0,0,0,0,0,0,0,0,0,0,0,0,0,0,0,0,0,0,0,0,0,0,0,0,0,0,0,0,0,0,0,0,0,0,0,0,0,0,0,0,0,0,0,0,-4.1785,-4.1786,0,-4.1894,-4.1896,-4.1897,-4.1862,-4.186,-4.1858,-4.1856,-4.1964,-4.1969,-4.1974,0,0,0,0,0,0,0,0,0,0,0,0,0,-4.1543,-4.1547,-4.1785,-4.1786,-4.1788,-4.1894,-4.1896,-4.1897,-4.1863,-4.186,-4.1857,-4.1855,-4.1963,-4.1969,-4.1975,0,0,0,0,0,0,0,0,0,0,0,0,0,-4.165,-4.1549,-4.1785,-4.1784,-4.1785,-4.1894,-4.1896,-4.1898,-4.1863,-4.186,-4.1857,-4.1853,-4.1961,-4.1968,-4.1976,-4.2092,0,0,-4.1999,-4.2002,0,0,0,0,0,0,0,0,-4.1644,-4.1658,-4.1782,-4.1784,-4.1785,-4.1861,-4.185,-4.1963,-4.1864,-4.1833,-4.1856,-4.1852,-4.1933,-4.1942,-4.197,-4.2097,-4.2101,-4.1999,-4.2004,-4.2007,-4.2009,0,0,0,0,0,0,0,-4.1636,-4.1654,-4.1828,-4.1784,-4.1786,-4.1776,-4.1788,-4.1871,-4.1901,-4.1836,-4.1834,-4.1847,-4.1933,-4.1963,-4.1973,-4.2103,-4.1999,-4.2006,-4.2011,-4.2013,-4.2328,-4.2332,0,0,0,0,0,0,-4.1628,-4.1648,-4.1825,-4.1831,-4.1704,-4.1783,-4.1796,-4.184,-4.19,-4.1906,-4.185,-4.1845,-4.1952,-4.1964,-4.1976,-4.2115,-4.2007,-4.2014,-4.2019,-4.2324,-4.2329,-4.2333,0,0,0,0,0,0,-4.1623,-4.1645,-4.182,-4.1739,-4.1761,-4.1791,-4.1841,-4.1844,-4.1875,-4.1911,-4.1916,-4.1876,-4.195,-4.1966,-4.2063,-4.2118,-4.2018,-4.2025,-4.232,-4.2326,-4.2331,-4.2394,0,0,0,0,0,0,-4.1617,-4.1643,-4.1688,-4.174,-4.1765,-4.1907,-4.1845,-4.1849,-4.1888,-4.1883,-4.1936,-4.1942,-4.1948,-4.2052,-4.2071,-4.2127,-4.203,-4.2315,-4.2323,-4.2329,-4.2387,-4.2402,-4.2414,0,0,0,0,0,-4.1608,-4.1702,-4.1691,-4.1713,-4.1823,-4.191,-4.1924,-4.193,-4.1893,-4.1938,-4.1961,-4.194,-4.2109,-4.2062,-4.2083,-4.2142,-4.2312,-4.232,-4.2329,-4.2382,-4.2399,-4.2413,0,0,0,0,0,0,-4.1655,-4.1708,-4.1697,-4.1811,-4.1856,-4.1904,-4.1961,-4.1949,-4.2005,-4.1997,-4.2002,-4.2014,-4.2114,-4.2138,-4.2084,-4.2257,-4.2205,-4.2218,-4.2238,-4.2255,-4.2267,-4.2259,-4.2037,0,0,0,0,0,-4.1678,-4.1746,-4.1789,-4.1884,-4.1908,-4.1931,-4.1969,-4.197,-4.2017,-4.2036,-4.2066,-4.2111,-4.2174,-4.2216,-4.2276,-4.2391,-4.2401,-4.2442,-4.2455,-4.2465,-4.2476,-4.2537,-4.2556,-4.2361,-4.2361,-4.2361,0,0,-4.1728,-4.1765,-4.1807,-4.1895,-4.193,-4.1998,-4.1947,-4.2022,-4.2072,-4.2046,-4.214,-4.2164,-4.2215,-4.2321,-4.2369,-4.2344,-4.2532,-4.2476,-4.2484,-4.249,-4.2548,-4.2566,-4.2583,-4.2367,-4.2366,-4.2365,0,0,-4.1852,-4.1888,-4.1971,-4.2008,-4.2062,-4.2077,-4.2096,-4.2147,-4.2161,-4.2256,-4.2237,-4.2296,-4.2406,-4.2442,-4.2475,-4.2612,-4.2594,-4.2631,-4.27,-4.2759,-4.2774,-4.2788,-4.2836,-4.2853,-4.2642,-4.2643,-4.2643,0,-4.1906,-4.201,-4.2015,-4.2092,-4.213,-4.211,-4.2194,-4.2228,-4.2299,-4.2325,-4.2296,-4.2432,-4.2465,-4.2579,-4.2612,-4.264,-4.2661,-4.2625,-4.2772,-4.2785,-4.2798,-4.2844,-4.2862,-4.2647,-4.2646,-4.2646,-4.2645,0,-4.2073,-4.2145,-4.2205,-4.2275,-4.232,-4.24,-4.2416,-4.246,-4.2457,-4.2474,-4.2569,-4.2608,-4.2675,-4.2702,-4.2699,-4.2815,-4.2798,-4.277,-4.2718,-4.2821,-4.2863,-4.2881,-4.2653,-4.2651,-4.265,-4.2649,0,0,-4.2231,-4.2302,-4.2324,-4.2355,-4.2413,-4.2468,-4.2545,-4.2612,-4.2649,-4.2698,-4.2763,-4.2855,-4.283,-4.2867,-4.2868,-4.292,-4.3025,-4.2886,-4.2887,-4.291,-4.3153,-4.3173,-4.3193,-4.3013,-4.3017,-4.3019,-4.3148,0,-4.236,-4.2498,-4.2504,-4.2629,-4.2695,-4.2676,-4.2744,-4.2786,-4.2803,-4.286,-4.2879,-4.2944,-4.2907,-4.2929,-4.298,-4.3001,-4.3073,-4.2992,-4.3072,-4.3074,-4.3059,-4.3216,-4.3237,-4.3357,-4.3165,-4.3168,-4.317,0,-4.2529,-4.2584,-4.2715,-4.2763,-4.279,-4.2851,-4.2912,-4.2967,-4.3013,-4.3022,-4.3064,-4.3057,-4.3134,-4.3079,-4.3186,-4.313,-4.3163,-4.3178,-4.3183,-4.319,-4.3128,-4.3226,-4.3396,-4.3413,-4.3197,-4.3195,-4.3193,0,-4.2629,-4.2736,-4.2828,-4.2855,-4.2913,-4.2956,-4.2982,-4.3025,-4.3064,-4.3116,-4.3141,-4.3202,-4.3235,-4.3281,-4.329,-4.325,-4.3396,-4.3342,-4.3404,-4.3404,-4.3436,-4.3434,-4.3612,-4.3458,-4.3458,-4.3458,-4.3457,0,-4.2772,-4.2853,-4.2874,-4.2931,-4.302,-4.3026,-4.3114,-4.3137,-4.3175,-4.3235,-4.3222,-4.3278,-4.3287,-4.3344,-4.3351,-4.3437,-4.3452,-4.3461,-4.3462,-4.3462,-4.3461,-4.3483,-4.3474,-4.3462,-4.3461,-4.346,-4.346,0,-4.29,-4.2918,-4.3017,-4.3063,-4.3076,-4.314,-4.3179,-4.3233,-4.3248,-4.3324,-4.3342,-4.3366,-4.3433,-4.3447,-4.3526,-4.353,-4.3632,-4.3625,-4.3617,-4.3616,-4.3677,-4.3671,-4.3876,-4.3902,-4.3732,-4.3733,-4.3735,0,-4.299,-4.3052,-4.3105,-4.3144,-4.3172,-4.3236,-4.3275,-4.3283,-4.3325,-4.3382,-4.3428,-4.3493,-4.3546,-4.3653,-4.3677,-4.3737,-4.3731,-4.3798,-4.374,-4.3737,-4.373,-4.3726,-4.3732,-4.3809,-4.3811,-4.3813,-4.3814,0,-4.3147,-4.3152,-4.3211,-4.3272,-4.332,-4.3368,-4.3414,-4.3447,-4.346,-4.3507,-4.3576,-4.3617,-4.3697,-4.3762,-4.3822,-4.3846,-4.3832,-4.3832,-4.385,-4.385,-4.3842,-4.3846,-4.3647,-4.3828,-4.3826,-4.3825,-4.3824,-4.3824,-4.3258,-4.3311,-4.3357,-4.3422,-4.3457,-4.35,-4.3552,-4.3575,-4.3632,-4.3699,-4.37,-4.3774,-4.3817,-4.3896,-4.3924,-4.3981,-4.396,-4.3985,-4.3992,-4.3998,-4.4003,-4.3834,-4.3992,-4.3992,-4.3992,-4.3991,-4.3991,0,-4.3414,-4.3442,-4.3501,-4.3566,-4.3617,-4.36,-4.3649,-4.3692,-4.3759,-4.38,-4.3853,-4.393,-4.3993,-4.4021,-4.4082,-4.4122,-4.4117,-4.4138,-4.4135,-4.414,-4.4019,-4.3998,-4.4141,-4.4141,-4.4141,-4.4141,-4.4141,-4.4141,-4.3501,-4.359,-4.36,-4.3706,-4.3733,-4.3807,-4.3837,-4.3875,-4.3909,-4.3997,-4.4048,-4.4067,-4.4103,-4.4166,-4.4222,-4.4229,-4.4251,-4.4275,-4.4278,-4.4164,-4.4149,-4.4135,-4.4114,-4.428,-4.428,-4.4395,-4.4396,-4.4396]}]]